CZ-6A DEB, 60882

Orbit data source: Space-Track

CZ-6A DEB, 60882 is space debris in LEO originally from a launch on Tue, 06 Aug 2024 UTC launched from the Taiyaun Space Center, China (TSC). Debris objects in space refer to the collection of defunct objects orbiting the Earth. Examples of debris include non-operational satellites, rocket bodies, and fragments generated from explosions, collisions, or faulty payload assembly.

Loading next visibility...
Identifier
60882, 2024-140KM
Orbit
LEO
Country
Flag of CNCN / PRC
Related business
Manufacturer
SAST
Mission
Spacecraft
Bus & Motor
Unknown
Mass
Unknown
Launch date (UTC)
2024-08-06 (2 years ago)
Launch vehicle
Unknown
Launch site
Taiyaun Space Center, China (TSC)
Object type
Payload
Rocket body
Debris
Shape & HBR
Unknown shape, 0.1 m
Radar Cross Section
Medium (>0.1 m² and <1 m²)

Expand to show TLE details & history
Last TLE update: 14 hours ago

TLE from 14 hours ago
0 CZ-6A DEB
1 60882U 24140KM  26171.28080954  .00001617  00000-0  10889-2 0  9991
2 60882  88.9889 277.4521 0213284 259.3964  98.3124 13.89813807 93010
Epoch: 2026-06-20T06:44Z
TLE epoch observation values (Epoch: 2026-06-20T06:44:21.944Z)
Latitude
-0.00001°
Longitude
-92.13702°
Altitude
958.07 km
Speed
7.36 km/s
True Right ascension
18h 29m 48s
True Declination
0° 00' 00"
Sunlit
Object was in full shadow at epoch
Visualization orbit readout
Latitude
Unknown
Longitude
Unknown
Altitude
Unknown
Speed
Unknown
Apparent Right ascension
Unknown
Apparent Declination
Unknown
Sunlit
N/A
Visualization observer readout
Local Sidereal Time
07:21:08
Azimuth
Unknown
Elevation
Unknown
Doppler factor
Unknown
Orbital elements
Apogee altitude
1,082.068 km
Perigee altitude
770.485 km
Semi-major axis
7,304.413 km
Eccentricity
0.02133
Inclination
88.9889°
RAAN
277.4521°
Arg. of periapsis
259.3964°
True anomaly
100.72078°
Mean anomaly
98.3124°
Eccentric anomaly
99.51761°
Mean motion
3.47668 °/min
Orbital period
103.55 mins
BSTAR
0.0010889
Loading maneuver chart data...
Computing Atmospheric mass density...
Loading historical data...
Loading historical data...
Loading historical data...
Loading historical data...
Loading historical data...
Loading historical data...
Loading historical data...

Documentation

Showing up to 5 results
|